Regional Weather Roundup
Issued by NWS Cleveland, OH

Home | Current Version | Previous Version | Graphics & Text | Print | Product List | Glossary On
Versions: 1 2 3 4 5 6 7 8 9 10 11 12 13 14 15 16 17 18 19 20 21 22 23 24 25 26 27 28 29 30 31 32 33 34 35 36 37 38 39 40 41 42 43 44 45 46 47 48 49 50
000
ASUS41 KCLE 250502
RWRCLE
OHIO REGIONAL WEATHER ROUNDUP
NATIONAL WEATHER SERVICE CLEVELAND, OH
100 AM EDT TUE APR 25 2017

NOTE: "FAIR" INDICATES FEW OR NO CLOUDS BELOW 12,000 FEET WITH NO
SIGNIFICANT WEATHER AND/OR OBSTRUCTIONS TO VISIBILITY.

OHZ001>008-015>018-024>027-034-035-043-044-250600-
   NORTHWEST OHIO

CITY           SKY/WX    TMP DP  RH WIND       PRES   REMARKS
DEFIANCE       PTCLDY    50  43  77 E8        29.84F
FINDLAY        CLEAR     57  45  64 SE10      29.85S
TOLEDO EXPRESS PTCLDY    53  47  79 E6        29.86F
TOLEDO EXEC    MOCLDY    54  49  83 E5        29.88F
LIMA           CLEAR     55  47  74 SE13      29.84F
$$

OHZ009>014-019>023-028>033-038-089-250600-
   NORTHEAST OHIO

CITY           SKY/WX    TMP DP  RH WIND       PRES   REMARKS
CLE-HOPKINS    CLOUDY    60  42  51 SE14      29.92F
CLE-LAKEFRONT  CLOUDY    60  42  51 SE13G25   29.90F
CUY CO. ARPT   NOT AVBL
LORAIN-ELYRIA  CLOUDY    57  42  57 SE15      29.90F
ASHTABULA      CLOUDY    58  42  55 SE22G31   29.96F
AKRON-CANTON   CLOUDY    56  42  59 SE14G23   29.91F
WOOSTER        CLOUDY    54  44  69 SE16      29.90F
MANSFIELD      PTCLDY    53  45  74 E13       29.88F
YOUNGSTOWN     CLOUDY    56  43  61 E15G28    29.96F
$$

OHZ042-051>053-060>062-070>072-077>081-250600-
  SOUTHWEST OHIO

CITY           SKY/WX    TMP DP  RH WIND       PRES   REMARKS
CINC-COVINGTON CLOUDY    59  53  80 E12       29.81S
CINC-LUNKEN    MOCLDY    58  54  86 E5        29.82F
HAMILTON       CLOUDY    59  53  80 E7        29.83S
DAYTON         PTCLDY    55  47  74 E10       29.83F
WRIGHT-PAT AFB MOCLDY    56  48  75 E12       29.83F
DAYTON GENERAL CLEAR     56  49  77 E7        29.82F
WILMINGTON     CLEAR     53  50  89 E7        29.82F
$$

OHZ036-037-039>041-045>050-054>059-063>069-073>076-082>088-250600-
  CENTRAL AND SOUTHEAST OHIO

CITY           SKY/WX    TMP DP  RH WIND       PRES   REMARKS
COLUMBUS       PTCLDY    55  47  74 E12       29.85F
OSU AIRPORT    CLEAR     53  48  83 E7        29.85F
BOLTON FIELD   PTCLDY    54  47  79 E10       29.85F
RICKENBACK AFB MOCLDY    53  48  83 E8        29.84F
NEWARK         CLOUDY    55  46  71 E7        29.86F
MARION         CLEAR     54  45  71 SE13      29.87F
LANCASTER      PTCLDY    55  47  74 E7        29.85F
ZANESVILLE     CLOUDY    54  46  74 E8        29.88F
NEW PHILLY     NOT AVBL
$$



USA.gov is the U.S. government's official web portal to all federal, state and local government web resources and services.